This is the latest recevied weather packets stored in our database for station/object CW2401. If no packets are shown the sender has not sent any weather packets the latest 10 day(s).
| Time | Temp. | Humidity | Pressure | Rain* | Wind** | Luminosity | Snow |
|---|---|---|---|---|---|---|---|
| 1777757245 | 14.44° C | 67% | 1012.6 hPa | 0 mm | - | - | - |
| 1777756759 | 14.44° C | 68% | 1012.6 hPa | 0 mm | - | - | - |
| 1777756396 | 14.44° C | 68% | 1012.7 hPa | 0 mm | - | - | - |
| 1777755310 | 14.44° C | 67% | 1012.8 hPa | 0 mm | - | - | - |
| 1777754827 | 14.44° C | 66% | 1012.7 hPa | 0 mm | - | - | - |
| 1777754103 | 14.44° C | 68% | 1012.8 hPa | 0 mm | - | - | - |
| 1777753983 | 14.44° C | 69% | 1012.7 hPa | 0 mm | - | - | - |
| 1777753862 | 14.44° C | 68% | 1012.7 hPa | 0 mm | - | - | - |
| 1777753620 | 14.44° C | 67% | 1012.7 hPa | 0 mm | - | - | - |
| 1777752533 | 15° C | 69% | 1012.7 hPa | 0 mm | - | - | - |
| 1777751692 | 15° C | 68% | 1012.8 hPa | 0 mm | - | - | - |
| 1777751450 | 15° C | 68% | 1012.8 hPa | 0 mm | - | - | - |
| 1777751211 | 15° C | 68% | 1012.8 hPa | 0 mm | - | - | - |
| 1777750249 | 15° C | 70% | 1013 hPa | 0 mm | - | - | - |
| 1777749404 | 15° C | 68% | 1013 hPa | 0 mm | - | - | - |
| 1777749163 | 15° C | 68% | 1012.9 hPa | 0 mm | - | - | - |
| 1777748922 | 15° C | 68% | 1013 hPa | 0 mm | - | - | - |
| 1777748321 | 15° C | 70% | 1013 hPa | 0 mm | - | - | - |
| 1777747960 | 15° C | 71% | 1013 hPa | 0 mm | - | - | - |
| 1777747840 | 15° C | 70% | 1013 hPa | 0 mm | - | - | - |
| 1777747601 | 15° C | 73% | 1013.1 hPa | 0 mm | - | - | - |
| 1777747482 | 15° C | 73% | 1013.1 hPa | 0 mm | - | - | - |
| 1777746880 | 14.44° C | 74% | 1013.2 hPa | 0 mm | - | - | - |
| 1777745202 | 14.44° C | 75% | 1013.5 hPa | 0 mm | - | - | - |
| 1777744722 | 14.44° C | 73% | 1013.5 hPa | 0 mm | - | - | - |
* Rain latest hour (hover to see other rain measurements)
** Current wind speed in m/s (hover to see current wind gust speed)